{"data":{"norad_id":43783,"epoch":"2026-09-20T00:37:24.696192Z","epoch_age_seconds":59117,"freshness":"FRESH","line1":"1 43783U 18099AB  26263.02598028  .00001278  00000+0  10702-3 0  9995","line2":"2 43783  97.4219 290.6393 0013898  90.8400 269.4417 15.00038253425529","mean_motion":15.00038253,"eccentricity":0.0013898,"inclination_deg":97.4219,"raan_deg":290.6393,"arg_perigee_deg":90.84,"mean_anomaly_deg":269.4417,"bstar":0.00010702,"rev_number":42552,"period_min":95.997551870432,"perigee_km":557.12623008892,"apogee_km":576.43031658268,"semimajor_km":6944.9152733358,"source":"CELESTRAK","updated_at":"2026-09-20T09:00:33.974137Z"}}